FFT1233 KILG-KISP

Flight info

Callsign FFT1233
Flight time N/A
Altitude 17000
Route DITCH T416 DRIFT T320 SARDI CCC
Aircraft A321/M-SDE3FGHIRWY/LB1

Departure

Time 2026-04-30 00:42
Airport Wilmington Airport (KILG)

Arrival

Time N/A
Airport Long Island MacArthur Airport (KISP)
Time Latitude Longitude Altitude Speed Heading
2026-04-30 00:29 39.67527 -75.59843 88 ft 0 kts 221°
2026-04-30 00:33 39.67535 -75.59833 87 ft 3 kts 221°
2026-04-30 00:33 39.67549 -75.59817 90 ft 3 kts 221°
2026-04-30 00:33 39.67563 -75.59801 91 ft 3 kts 221°
2026-04-30 00:34 39.67577 -75.59785 90 ft 3 kts 221°
2026-04-30 00:34 39.67579 -75.59783 89 ft 0 kts 221°
2026-04-30 00:36 39.67575 -75.59818 90 ft 6 kts 293°
2026-04-30 00:37 39.67605 -75.59864 87 ft 6 kts 310°
2026-04-30 00:37 39.67641 -75.59937 86 ft 15 kts 301°
2026-04-30 00:37 39.67706 -75.60039 90 ft 14 kts 311°
2026-04-30 00:37 39.67743 -75.60145 87 ft 12 kts 310°
2026-04-30 00:38 39.67813 -75.60156 87 ft 10 kts
2026-04-30 00:38 39.67889 -75.60147 86 ft 16 kts
2026-04-30 00:38 39.68019 -75.60132 80 ft 19 kts
2026-04-30 00:38 39.68153 -75.60117 75 ft 20 kts
2026-04-30 00:39 39.68326 -75.60097 71 ft 27 kts
2026-04-30 00:39 39.68508 -75.60078 69 ft 27 kts
2026-04-30 00:39 39.68695 -75.60056 67 ft 26 kts
2026-04-30 00:39 39.68796 -75.60053 67 ft 0 kts 340°
2026-04-30 00:40 39.68807 -75.60063 66 ft 9 kts 318°
2026-04-30 00:41 39.68796 -75.60158 65 ft 13 kts 215°
2026-04-30 00:41 39.68685 -75.60180 68 ft 26 kts 184°
2026-04-30 00:41 39.68205 -75.60234 78 ft 110 kts 185°
2026-04-30 00:41 39.67204 -75.60344 152 ft 169 kts 182°
2026-04-30 00:42 39.66078 -75.60442 1158 ft 156 kts 180°
2026-04-30 00:42 39.65357 -75.60416 1889 ft 150 kts 172°
2026-04-30 00:42 39.64444 -75.60057 2676 ft 139 kts 162°
2026-04-30 00:43 39.63883 -75.59842 2826 ft 148 kts 171°